CZ-6A DEB, 64656

Orbit data source: Space-Track

CZ-6A DEB, 64656 is space debris in LEO originally from a launch on Tue, 06 Aug 2024 UTC launched from the Taiyaun Space Center, China (TSC). Debris objects in space refer to the collection of defunct objects orbiting the Earth. Examples of debris include non-operational satellites, rocket bodies, and fragments generated from explosions, collisions, or faulty payload assembly.

Loading next visibility...
Identifier
64656, 2024-140AEW
Orbit
LEO
Country
Flag of CNCN / PRC
Related business
Manufacturer
SAST
Mission
Spacecraft
Bus & Motor
Unknown
Mass
Unknown
Launch date (UTC)
2024-08-06 (2 years ago)
Launch vehicle
Unknown
Launch site
Taiyaun Space Center, China (TSC)
Object type
Payload
Rocket body
Debris
Shape & HBR
Unknown shape, 0.1 m
Radar Cross Section
Small (<0.1 m²)

Expand to show TLE details & history
Last TLE update: 16 hours ago

TLE from 16 hours ago
0 CZ-6A DEB
1 64656U 24140AEW 26171.29611557  .00003684  00000-0  12794-2 0  9997
2 64656  89.0226 274.8162 0019424 120.6124 239.6993 14.35264220 86398
Epoch: 2026-06-20T07:06Z
TLE epoch observation values (Epoch: 2026-06-20T07:06:24.385Z)
Latitude
-0.00005°
Longitude
-100.29818°
Altitude
784.295 km
Speed
7.458 km/s
True Right ascension
18h 19m 15s
True Declination
0° 00' 00"
Sunlit
Object was in full shadow at epoch
Visualization orbit readout
Latitude
Unknown
Longitude
Unknown
Altitude
Unknown
Speed
Unknown
Apparent Right ascension
Unknown
Apparent Declination
Unknown
Sunlit
N/A
Visualization observer readout
Local Sidereal Time
10:18:05
Azimuth
Unknown
Elevation
Unknown
Doppler factor
Unknown
Orbital elements
Apogee altitude
785.004 km
Perigee altitude
757.231 km
Semi-major axis
7,149.255 km
Eccentricity
0.00194
Inclination
89.0226°
RAAN
274.8162°
Arg. of periapsis
120.6124°
True anomaly
239.50736°
Mean anomaly
239.6993°
Eccentric anomaly
239.60331°
Mean motion
3.59048 °/min
Orbital period
100.27 mins
BSTAR
0.0012794
Loading maneuver chart data...
Computing Atmospheric mass density...
Loading historical data...
Loading historical data...
Loading historical data...
Loading historical data...
Loading historical data...
Loading historical data...
Loading historical data...

Documentation

Showing up to 5 results
|